| time (UTC) | temp C | wind direction | speed KPH | gust KPH | rain 1hr cm | rain 24hr cm | rain mn cm | humidity % | barometer mb |
| 20260503200210 | 12 | 36 | 4.8 | 4.8 | 0.00 | 0.00 | 0.00 | 40 | 1012.4 |
| 20260503195707 | 12 | 226 | 4.8 | 8.0 | 0.00 | 0.00 | 0.00 | 41 | 1012.4 |
| 20260503195204 | 12 | 338 | 3.2 | 9.7 | 0.00 | 0.00 | 0.00 | 39 | 1012.6 |
| 20260503194701 | 12 | 14 | 1.6 | 3.2 | 0.00 | 0.00 | 0.00 | 41 | 1012.5 |
| 20260503194156 | 12 | 174 | 8.0 | 11.3 | 0.00 | 0.00 | 0.00 | 40 | 1012.3 |
| 20260503193653 | 12 | 144 | 3.2 | 8.0 | 0.00 | 0.00 | 0.00 | 40 | 1012.8 |
| 20260503193149 | 12 | 343 | 4.8 | 9.7 | 0.00 | 0.00 | 0.00 | 40 | 1012.7 |
| 20260503192645 | 12 | 86 | 8.0 | 11.3 | 0.00 | 0.00 | 0.00 | 39 | 1012.8 |
| 20260503192141 | 12 | 186 | 6.4 | 8.0 | 0.00 | 0.00 | 0.00 | 41 | 1013.1 |
| 20260503191638 | 12 | 184 | 11.3 | 12.9 | 0.00 | 0.00 | 0.00 | 40 | 1013.1 |
| 20260503191135 | 12 | 111 | 4.8 | 8.0 | 0.00 | 0.00 | 0.00 | 41 | 1013.2 |
| 20260503190631 | 12 | 195 | 9.7 | 12.9 | 0.00 | 0.00 | 0.00 | 44 | 1013.1 |
| 20260503190128 | 12 | 183 | 4.8 | 11.3 | 0.00 | 0.00 | 0.00 | 40 | 1013.2 |
| 20260503185625 | 12 | 176 | 4.8 | 8.0 | 0.00 | 0.00 | 0.00 | 42 | 1013.3 |
| 20260503185120 | 12 | 82 | 4.8 | 4.8 | 0.00 | 0.00 | 0.00 | 42 | 1013.2 |
| 20260503184615 | 11 | 87 | 8.0 | 11.3 | 0.00 | 0.00 | 0.00 | 40 | 1013.3 |
| 20260503184112 | 11 | 186 | 12.9 | 16.1 | 0.00 | 0.00 | 0.00 | 41 | 1013.5 |
| 20260503183609 | 11 | 143 | 4.8 | 8.0 | 0.00 | 0.00 | 0.00 | 40 | 1013.5 |
| 20260503183106 | 11 | 109 | 4.8 | 4.8 | 0.00 | 0.00 | 0.00 | 44 | 1013.5 |
| 20260503182605 | 11 | 300 | 12.9 | 12.9 | 0.00 | 0.00 | 0.00 | 41 | 1013.7 |
| 20260503182102 | 11 | 113 | 4.8 | 4.8 | 0.00 | 0.00 | 0.00 | 42 | 1013.6 |
| 20260503181559 | 11 | 357 | 14.5 | 16.1 | 0.00 | 0.00 | 0.00 | 40 | 1013.8 |
| 20260503181055 | 11 | 32 | 4.8 | 8.0 | 0.00 | 0.00 | 0.00 | 41 | 1013.7 |
| 20260503180553 | 11 | 354 | 8.0 | 9.7 | 0.00 | 0.00 | 0.00 | 40 | 1013.5 |
| 20260503180050 | 11 | 164 | 1.6 | 3.2 | 0.00 | 0.00 | 0.00 | 40 | 1013.7 |
| 20260503175547 | 11 | 20 | 11.3 | 14.5 | 0.00 | 0.00 | 0.00 | 39 | 1013.7 |
| 20260503175044 | 12 | 4 | 3.2 | 4.8 | 0.00 | 0.00 | 0.00 | 39 | 1013.8 |
| 20260503174541 | 11 | 189 | 6.4 | 8.0 | 0.00 | 0.00 | 0.00 | 39 | 1013.7 |
| 20260503174038 | 11 | 214 | 17.7 | 25.7 | 0.00 | 0.00 | 0.00 | 42 | 1013.9 |
| 20260503173533 | 11 | 137 | 1.6 | 3.2 | 0.00 | 0.00 | 0.00 | 43 | 1013.9 |
| 20260503173029 | 11 | 18 | 8.0 | 11.3 | 0.00 | 0.00 | 0.00 | 39 | 1014.1 |
| 20260503172521 | 12 | 180 | 8.0 | 11.3 | 0.00 | 0.00 | 0.00 | 38 | 1013.9 |
| 20260503172018 | 10 | 289 | 9.7 | 14.5 | 0.00 | 0.00 | 0.00 | 41 | 1013.8 |
| 20260503171515 | 10 | 282 | 11.3 | 12.9 | 0.00 | 0.00 | 0.00 | 39 | 1013.9 |
| 20260503171012 | 11 | 353 | 12.9 | 14.5 | 0.00 | 0.00 | 0.00 | 43 | 1013.9 |
| 20260503170508 | 10 | 189 | 9.7 | 11.3 | 0.00 | 0.00 | 0.00 | 42 | 1014.0 |
| 20260503150900 | 8 | 299 | 8.0 | 11.3 | 0.00 | 0.00 | 0.00 | 46 | 1014.8 |
| 20260503150357 | 8 | 271 | 4.8 | 8.0 | 0.00 | 0.00 | 0.00 | 49 | 1014.9 |
| 20260503131250 | 5 | 111 | 3.2 | 3.2 | 0.00 | 0.00 | 0.00 | 64 | 1015.3 |
| 20260503130748 | 5 | 353 | 8.0 | 11.3 | 0.00 | 0.00 | 0.00 | 66 | 1015.5 |
| 20260503130246 | 5 | 305 | 4.8 | 8.0 | 0.00 | 0.00 | 0.00 | 67 | 1015.6 |
| 20260503120211 | 0 | 181 | 3.2 | 3.2 | 0.00 | 0.00 | 0.00 | 90 | 1015.6 |
| 20260503110638 | -3 | 205 | 0.0 | 0.0 | 0.00 | 0.00 | 0.00 | 98 | 1015.3 |
| 20260503110136 | -3 | 207 | 0.0 | 0.0 | 0.00 | 0.00 | 0.00 | 98 | 1015.0 |
| 20260503081446 | -2 | 251 | 0.0 | 0.0 | 0.00 | 0.00 | 0.00 | 95 | 1014.4 |
| 20260503080943 | -2 | 245 | 0.0 | 0.0 | 0.00 | 0.00 | 0.00 | 95 | 1014.5 |
| 20260503080439 | -2 | 276 | 0.0 | 1.6 | 0.00 | 0.00 | 0.00 | 95 | 1014.5 |
| 20260503072916 | -1 | 269 | 0.0 | 1.6 | 0.00 | 0.00 | 0.00 | 93 | 1014.3 |
| 20260503072413 | -1 | 285 | 0.0 | 1.6 | 0.00 | 0.00 | 0.00 | 93 | 1014.0 |
| 20260503071910 | -1 | 330 | 1.6 | 1.6 | 0.00 | 0.00 | 0.00 | 92 | 1014.2 |
| 20260503071407 | -1 | 264 | 0.0 | 0.0 | 0.00 | 0.00 | 0.00 | 92 | 1013.9 |
| 20260503070903 | -1 | 267 | 1.6 | 1.6 | 0.00 | 0.00 | 0.00 | 91 | 1013.9 |
| 20260503070400 | -1 | 24 | 1.6 | 1.6 | 0.00 | 0.00 | 0.00 | 90 | 1014.0 |
| 20260503060326 | 0 | 242 | 0.0 | 0.0 | 0.00 | 0.00 | 0.00 | 85 | 1014.2 |
| 20260503054814 | 0 | 222 | 0.0 | 0.0 | 0.00 | 0.00 | 0.00 | 84 | 1014.3 |
| 20260503054310 | 0 | 221 | 0.0 | 0.0 | 0.00 | 0.00 | 0.00 | 83 | 1014.3 |
| 20260503053808 | 0 | 239 | 0.0 | 0.0 | 0.00 | 0.00 | 0.00 | 83 | 1014.3 |
| 20260503053306 | 0 | 200 | 0.0 | 0.0 | 0.00 | 0.00 | 0.00 | 83 | 1014.2 |
| 20260503052802 | 0 | 202 | 0.0 | 0.0 | 0.00 | 0.00 | 0.00 | 82 | 1014.3 |
| 20260503052259 | 0 | 220 | 0.0 | 0.0 | 0.00 | 0.00 | 0.00 | 81 | 1014.2 |
| 20260503051755 | 0 | 220 | 0.0 | 0.0 | 0.00 | 0.00 | 0.00 | 80 | 1014.4 |
| 20260503051252 | 0 | 238 | 0.0 | 0.0 | 0.00 | 0.00 | 0.00 | 79 | 1014.5 |
| 20260503050748 | 0 | 261 | 0.0 | 0.0 | 0.00 | 0.00 | 0.00 | 78 | 1014.4 |
| 20260503050245 | 0 | 234 | 0.0 | 0.0 | 0.00 | 0.00 | 0.00 | 78 | 1014.6 |
| 20260503045742 | 1 | 242 | 0.0 | 0.0 | 0.00 | 0.00 | 0.00 | 77 | 1014.5 |
| 20260503045234 | 1 | 300 | 1.6 | 1.6 | 0.00 | 0.00 | 0.00 | 77 | 1014.7 |
| 20260503044730 | 1 | 297 | 1.6 | 1.6 | 0.00 | 0.00 | 0.00 | 77 | 1014.8 |
| 20260503044227 | 1 | 231 | 0.0 | 0.0 | 0.00 | 0.00 | 0.00 | 76 | 1014.7 |
| 20260503043724 | 1 | 241 | 0.0 | 0.0 | 0.00 | 0.00 | 0.00 | 76 | 1014.8 |
| 20260503043222 | 1 | 201 | 0.0 | 0.0 | 0.00 | 0.00 | 0.00 | 76 | 1014.8 |
| 20260503042717 | 1 | 236 | 0.0 | 0.0 | 0.00 | 0.00 | 0.00 | 75 | 1014.7 |
| 20260503042214 | 1 | 229 | 0.0 | 0.0 | 0.00 | 0.00 | 0.00 | 75 | 1014.6 |
| 20260503041710 | 1 | 7 | 1.6 | 1.6 | 0.00 | 0.00 | 0.00 | 74 | 1014.7 |
| 20260503041208 | 1 | 251 | 0.0 | 0.0 | 0.00 | 0.00 | 0.00 | 75 | 1014.9 |
| 20260503040705 | 1 | 247 | 0.0 | 1.6 | 0.00 | 0.00 | 0.00 | 76 | 1014.8 |
| 20260503040203 | 1 | 273 | 1.6 | 1.6 | 0.00 | 0.00 | 0.00 | 75 | 1014.7 |
| 20260503035659 | 1 | 349 | 1.6 | 1.6 | 0.00 | 0.00 | 0.00 | 75 | 1014.7 |
| 20260503035157 | 1 | 214 | 0.0 | 1.6 | 0.00 | 0.00 | 0.00 | 77 | 1014.7 |
| 20260503034654 | 1 | 228 | 0.0 | 0.0 | 0.00 | 0.00 | 0.00 | 77 | 1014.9 |
| 20260503034151 | 1 | 187 | 0.0 | 0.0 | 0.00 | 0.00 | 0.00 | 77 | 1014.8 |
| 20260503033648 | 1 | 202 | 0.0 | 0.0 | 0.00 | 0.00 | 0.00 | 77 | 1014.8 |
| 20260503033146 | 1 | 250 | 0.0 | 1.6 | 0.00 | 0.00 | 0.00 | 78 | 1014.8 |
| 20260503032644 | 1 | 335 | 1.6 | 3.2 | 0.00 | 0.00 | 0.00 | 76 | 1014.9 |
| 20260503032143 | 1 | 240 | 0.0 | 0.0 | 0.00 | 0.00 | 0.00 | 79 | 1014.9 |
| 20260503031639 | 1 | 160 | 0.0 | 1.6 | 0.00 | 0.00 | 0.00 | 77 | 1014.7 |
| 20260503031137 | 1 | 206 | 0.0 | 0.0 | 0.00 | 0.00 | 0.00 | 76 | 1014.9 |
| 20260503030633 | 1 | 205 | 0.0 | 0.0 | 0.00 | 0.00 | 0.00 | 75 | 1015.0 |
| 20260503030130 | 1 | 272 | 0.0 | 1.6 | 0.00 | 0.00 | 0.00 | 77 | 1014.8 |
| 20260503025626 | 1 | 223 | 0.0 | 0.0 | 0.00 | 0.00 | 0.00 | 75 | 1014.9 |
| 20260503025125 | 1 | 198 | 0.0 | 0.0 | 0.00 | 0.00 | 0.00 | 75 | 1014.9 |
| 20260503024621 | 1 | 196 | 0.0 | 0.0 | 0.00 | 0.00 | 0.00 | 75 | 1014.7 |
| 20260503024118 | 1 | 215 | 0.0 | 0.0 | 0.00 | 0.00 | 0.00 | 74 | 1015.0 |
| 20260503023615 | 2 | 225 | 0.0 | 0.0 | 0.00 | 0.00 | 0.00 | 72 | 1014.8 |
| 20260503023112 | 1 | 278 | 0.0 | 1.6 | 0.00 | 0.00 | 0.00 | 72 | 1014.9 |
| 20260503022607 | 1 | 216 | 0.0 | 1.6 | 0.00 | 0.00 | 0.00 | 74 | 1015.0 |
| 20260503022102 | 1 | 272 | 0.0 | 1.6 | 0.00 | 0.00 | 0.00 | 72 | 1014.9 |
| 20260503021600 | 2 | 248 | 0.0 | 1.6 | 0.00 | 0.00 | 0.00 | 74 | 1015.0 |
| 20260503021056 | 2 | 37 | 0.0 | 1.6 | 0.00 | 0.00 | 0.00 | 72 | 1014.9 |
| 20260503020553 | 2 | 253 | 0.0 | 0.0 | 0.00 | 0.00 | 0.00 | 72 | 1014.8 |
| 20260503020050 | 2 | 188 | 0.0 | 0.0 | 0.00 | 0.00 | 0.00 | 73 | 1014.7 |
| 20260503015547 | 2 | 174 | 0.0 | 0.0 | 0.00 | 0.00 | 0.00 | 70 | 1014.7 |
| 20260503015045 | 2 | 204 | 0.0 | 0.0 | 0.00 | 0.00 | 0.00 | 72 | 1014.7 |
| 20260503014540 | 2 | 292 | 1.6 | 1.6 | 0.00 | 0.00 | 0.00 | 67 | 1014.8 |
| 20260503014038 | 2 | 188 | 0.0 | 0.0 | 0.00 | 0.00 | 0.00 | 72 | 1014.8 |
| 20260503013535 | 3 | 218 | 0.0 | 0.0 | 0.00 | 0.00 | 0.00 | 68 | 1014.6 |
| 20260503013033 | 3 | 159 | 1.6 | 1.6 | 0.00 | 0.00 | 0.00 | 71 | 1014.9 |
| 20260503012530 | 3 | 251 | 0.0 | 1.6 | 0.00 | 0.00 | 0.00 | 64 | 1014.8 |
| 20260503012026 | 2 | 337 | 4.8 | 4.8 | 0.00 | 0.00 | 0.00 | 69 | 1014.8 |
| 20260503011523 | 2 | 201 | 0.0 | 0.0 | 0.00 | 0.00 | 0.00 | 73 | 1014.6 |
| 20260503011021 | 2 | 207 | 0.0 | 0.0 | 0.00 | 0.00 | 0.00 | 72 | 1014.7 |
| 20260503010516 | 3 | 209 | 0.0 | 0.0 | 0.00 | 0.00 | 0.00 | 70 | 1014.6 |
| 20260503010015 | 3 | 185 | 0.0 | 1.6 | 0.00 | 0.00 | 0.00 | 66 | 1014.6 |
| 20260503005511 | 3 | 208 | 0.0 | 0.0 | 0.00 | 0.00 | 0.00 | 64 | 1014.6 |
| 20260503005009 | 3 | 248 | 0.0 | 0.0 | 0.00 | 0.00 | 0.00 | 70 | 1014.5 |
| 20260503004504 | 3 | 208 | 1.6 | 1.6 | 0.00 | 0.00 | 0.00 | 69 | 1014.6 |
| 20260503004003 | 3 | 246 | 0.0 | 1.6 | 0.00 | 0.00 | 0.00 | 66 | 1014.3 |
| 20260503003459 | 3 | 244 | 0.0 | 0.0 | 0.00 | 0.00 | 0.00 | 64 | 1014.2 |
| 20260503002956 | 3 | 340 | 1.6 | 3.2 | 0.00 | 0.00 | 0.00 | 61 | 1014.1 |
| 20260503002453 | 4 | 342 | 3.2 | 3.2 | 0.00 | 0.00 | 0.00 | 61 | 1014.2 |
| 20260503001949 | 4 | 315 | 3.2 | 3.2 | 0.00 | 0.00 | 0.00 | 60 | 1014.3 |
| 20260503001446 | 4 | 315 | 3.2 | 3.2 | 0.00 | 0.00 | 0.00 | 60 | 1014.2 |
| 20260503000944 | 4 | 342 | 4.8 | 9.7 | 0.00 | 0.00 | 0.00 | 61 | 1014.0 |
| 20260503000441 | 4 | 335 | 4.8 | 8.0 | 0.00 | 0.00 | 0.00 | 60 | 1014.1 |
| 20260502235938 | 4 | 332 | 6.4 | 9.7 | 0.00 | 0.00 | 0.00 | 60 | 1014.1 |
| 20260502235435 | 4 | 0 | 6.4 | 8.0 | 0.00 | 0.00 | 0.00 | 60 | 1014.2 |
| 20260502234932 | 4 | 332 | 6.4 | 9.7 | 0.00 | 0.00 | 0.00 | 60 | 1014.1 |
| 20260502234429 | 4 | 308 | 1.6 | 3.2 | 0.00 | 0.00 | 0.00 | 62 | 1014.1 |
| 20260502233926 | 4 | 353 | 3.2 | 3.2 | 0.00 | 0.00 | 0.00 | 62 | 1014.0 |
| 20260502233421 | 4 | 327 | 1.6 | 3.2 | 0.00 | 0.00 | 0.00 | 65 | 1014.1 |
| 20260502232918 | 4 | 177 | 1.6 | 1.6 | 0.00 | 0.00 | 0.00 | 72 | 1013.9 |
| 20260502232414 | 4 | 235 | 0.0 | 1.6 | 0.00 | 0.00 | 0.00 | 69 | 1014.0 |
| 20260502231912 | 4 | 241 | 0.0 | 0.0 | 0.00 | 0.00 | 0.00 | 69 | 1014.0 |
| 20260502231409 | 4 | 237 | 0.0 | 1.6 | 0.00 | 0.00 | 0.00 | 66 | 1014.0 |
| 20260502230907 | 4 | 280 | 3.2 | 3.2 | 0.00 | 0.00 | 0.00 | 66 | 1014.1 |
| 20260502230405 | 4 | 332 | 3.2 | 3.2 | 0.00 | 0.00 | 0.00 | 68 | 1014.0 |
| 20260502225902 | 4 | 286 | 6.4 | 8.0 | 0.00 | 0.00 | 0.00 | 67 | 1013.7 |
| 20260502225358 | 5 | 22 | 1.6 | 1.6 | 0.00 | 0.00 | 0.00 | 67 | 1013.9 |
| 20260502224855 | 5 | 0 | 3.2 | 4.8 | 0.00 | 0.00 | 0.00 | 67 | 1014.0 |
| 20260502224351 | 5 | 314 | 3.2 | 3.2 | 0.00 | 0.00 | 0.00 | 69 | 1013.7 |
| 20260502223849 | 5 | 308 | 1.6 | 3.2 | 0.00 | 0.00 | 0.00 | 68 | 1013.8 |
| 20260502223347 | 5 | 26 | 1.6 | 4.8 | 0.00 | 0.00 | 0.00 | 68 | 1013.9 |
| 20260502222844 | 5 | 208 | 0.0 | 0.0 | 0.00 | 0.00 | 0.00 | 68 | 1013.8 |
| 20260502222342 | 5 | 346 | 4.8 | 8.0 | 0.00 | 0.00 | 0.00 | 66 | 1013.8 |
| 20260502221837 | 5 | 30 | 4.8 | 4.8 | 0.00 | 0.00 | 0.00 | 66 | 1013.7 |
| 20260502221334 | 5 | 30 | 4.8 | 4.8 | 0.00 | 0.00 | 0.00 | 66 | 1013.7 |
| 20260502220831 | 5 | 71 | 3.2 | 4.8 | 0.00 | 0.00 | 0.00 | 65 | 1013.7 |
| 20260502220327 | 5 | 56 | 4.8 | 8.0 | 0.00 | 0.00 | 0.00 | 64 | 1013.9 |
| 20260502215823 | 5 | 20 | 3.2 | 4.8 | 0.00 | 0.00 | 0.00 | 64 | 1013.7 |
| 20260502215321 | 5 | 3 | 3.2 | 3.2 | 0.00 | 0.00 | 0.00 | 64 | 1013.8 |
| 20260502214818 | 5 | 357 | 8.0 | 12.9 | 0.00 | 0.00 | 0.00 | 64 | 1013.5 |
| 20260502214315 | 5 | 242 | 0.0 | 0.0 | 0.00 | 0.00 | 0.00 | 65 | 1013.8 |
| 20260502213812 | 5 | 203 | 3.2 | 3.2 | 0.00 | 0.00 | 0.00 | 66 | 1013.8 |
| 20260502213309 | 5 | 144 | 1.6 | 3.2 | 0.00 | 0.00 | 0.00 | 65 | 1013.7 |
| 20260502212808 | 5 | 118 | 3.2 | 4.8 | 0.00 | 0.00 | 0.00 | 67 | 1013.6 |
| 20260502212306 | 5 | 306 | 11.3 | 12.9 | 0.00 | 0.00 | 0.00 | 66 | 1013.8 |
| 20260502211802 | 6 | 40 | 3.2 | 4.8 | 0.00 | 0.00 | 0.00 | 66 | 1013.7 |
| 20260502211258 | 5 | 231 | 0.0 | 0.0 | 0.00 | 0.00 | 0.00 | 65 | 1013.6 |
| 20260502210755 | 5 | 349 | 14.5 | 29.0 | 0.00 | 0.00 | 0.00 | 65 | 1013.6 |
| 20260502210253 | 5 | 276 | 4.8 | 8.0 | 0.00 | 0.00 | 0.00 | 67 | 1013.6 |
| 20260502205750 | 5 | 356 | 6.4 | 8.0 | 0.00 | 0.00 | 0.00 | 67 | 1013.7 |
| 20260502205246 | 5 | 326 | 4.8 | 12.9 | 0.00 | 0.00 | 0.00 | 66 | 1013.6 |
| 20260502204743 | 5 | 46 | 14.5 | 25.7 | 0.00 | 0.00 | 0.00 | 65 | 1013.4 |
| 20260502204240 | 5 | 335 | 4.8 | 8.0 | 0.00 | 0.00 | 0.00 | 66 | 1013.6 |
| 20260502203732 | 6 | 324 | 4.8 | 4.8 | 0.00 | 0.00 | 0.00 | 67 | 1013.5 |
| 20260502203230 | 5 | 134 | 0.0 | 1.6 | 0.00 | 0.00 | 0.00 | 67 | 1013.5 |
| 20260502202723 | 5 | 332 | 17.7 | 24.1 | 0.00 | 0.00 | 0.00 | 67 | 1013.6 |
| 20260502202222 | 5 | 334 | 14.5 | 17.7 | 0.00 | 0.00 | 0.00 | 66 | 1013.5 |
| 20260502201719 | 6 | 353 | 6.4 | 8.0 | 0.00 | 0.00 | 0.00 | 67 | 1013.7 |
| 20260502201216 | 6 | 277 | 6.4 | 8.0 | 0.00 | 0.00 | 0.00 | 67 | 1013.5 |
| 20260502200712 | 5 | 345 | 4.8 | 4.8 | 0.00 | 0.00 | 0.00 | 68 | 1013.6 |